Date,TemperatureHighF,TemperatureAvgF,TemperatureLowF,DewpointHighF,DewpointAvgF,DewpointLowF,HumidityHigh,HumidityAvg,HumidityLow,PressureMaxIn,PressureMinIn,WindSpeedMaxMPH,WindSpeedAvgMPH,GustSpeedMaxMPH,PrecipitationSumIn
2013-11-1,43,35,28,39,34,28,98,94,79,30.00,29.80,2,0,0,0.01
2013-11-2,36,32,28,35,31,26,98,96,90,29.79,29.42,3,1,0,0.05
2013-11-3,34,29,21,30,26,19,98,90,82,29.90,29.61,3,1,0,0.00
2013-11-4,36,25,14,30,22,11,98,89,75,29.97,29.84,1,0,0,0.06
2013-11-5,34,30,27,32,29,26,98,95,85,29.98,29.82,1,0,0,0.00
2013-11-6,34,31,28,33,30,28,98,96,83,30.14,29.96,0,0,0,0.00
2013-11-7,36,33,30,33,32,30,98,97,88,29.95,29.46,2,0,0,0.05
2013-11-8,43,34,28,37,32,28,98,93,77,29.91,29.79,3,1,0,0.46
2013-11-9,37,32,27,33,30,26,98,95,82,30.01,29.91,3,0,0,0.02
2013-11-10,34,31,27,33,30,26,98,94,85,30.22,30.00,2,0,0,0.01
2013-11-11,37,29,19,30,26,17,98,89,73,30.23,29.96,4,2,0,0.02
2013-11-12,46,39,34,38,34,30,90,83,70,30.00,29.87,5,3,0,0.86
2013-11-13,45,38,32,38,35,31,98,88,73,30.11,29.97,4,1,0,0.04
2013-11-14,41,33,28,35,31,28,98,93,72,30.05,29.63,3,0,0,0.15
2013-11-15,32,31,30,32,31,30,98,98,98,29.62,29.38,2,0,0,0.09
2013-11-17,28,28,27,28,28,26,98,98,98,29.48,29.43,0,0,0,0.00
2013-11-18,30,24,14,27,22,10,98,91,83,29.57,29.45,0,0,0,0.00
2013-11-19,14,6,-8,10,1,-13,85,80,73,29.95,29.43,0,0,0,0.00
2013-11-20,19,3,-13,19,-2,-19,84,77,69,30.24,29.96,0,0,0,0.00
2013-11-21,23,18,10,18,13,6,86,82,75,30.46,30.23,0,0,0,0.00
2013-11-22,30,21,14,24,17,11,98,85,73,30.53,30.35,0,0,0,0.00
2013-11-23,30,25,18,26,21,14,92,85,78,30.37,30.07,0,0,0,0.00
2013-11-24,32,25,14,28,23,11,98,90,81,30.16,30.09,0,0,0,0.00
2013-11-25,36,30,27,31,28,24,98,92,80,30.19,30.09,0,0,0,0.00
2013-11-26,36,28,21,31,27,21,98,94,79,30.09,29.94,0,0,0,0.00
2013-11-27,36,26,21,32,24,19,98,94,78,30.00,29.87,0,0,0,0.00
2013-11-28,37,31,23,33,29,22,98,92,79,29.93,29.81,0,0,0,0.02
2013-11-29,37,32,30,35,32,30,98,97,86,30.01,29.91,0,0,0,0.09
2013-11-30,37,34,32,37,33,32,98,98,98,29.99,29.79,3,0,0,0.28